Weather History for KPIH - July, 2011

Change the Weather History Date:

Wednesday, July 13, 2011

  Actual Average Record
Temperature  
Mean Temperature 73 °F 70 °F  
Max Temperature 91 °F 88 °F 103 °F (2002)
Min Temperature 54 °F 52 °F 37 °F (1965)
Degree Days  
Heating Degree Days 0 1  
Month to date heating degree days 4 14  
Since 1 June heating degree days 193 145  
Since 1 July heating degree days 4 14  
Cooling Degree Days 8 5  
Month to date cooling degree days 64 58  
Year to date cooling degree days 89 109  
Since 1 June cooling degree days 89 104  
Growing Degree Days 24 (Base 50)    
Moisture  
Dew Point 47 °F    
Average Humidity 54    
Maximum Humidity 93    
Minimum Humidity 14    
Precipitation  
Precipitation 0.00 in 0.02 in 0.51 in (1962)
Month to date precipitation 0.29 0.25  
Year to date precipitation 8.30 7.07  
Snow  
Snow 0.00 in - - ()
Month to date snowfall 0.0  
Since 1 June snowfall 0.0  
Since 1 July snowfall 0.0  
Snow Depth 0.00 in    
Sea Level Pressure  
Sea Level Pressure 29.71 in    
Wind  
Wind Speed 10 mph (WSW)    
Max Wind Speed 28 mph    
Max Gust Speed 38 mph    
Visibility 10 miles    
Events      
T = Trace of Precipitation, MM = Missing Value Source: NWS Daily Summary

Daily Weather History Graph

Daily Weather History Graph

Search for Another Location

Airport or City:

Trip Planner

Search our weather history database for the weather conditions in past years. The results will help you decide how hot, cold, wet, or windy it might be!

Date:

Astronomy

Jul. 13, 2011 Rise Set
Actual Time 6:03 AM MDT 9:08 PM MDT
Civil Twilight 5:28 AM MDT 9:42 PM MDT
Nautical Twilight 4:45 AM MDT 10:26 PM MDT
Astronomical Twilight 3:52 AM MDT 11:18 PM MDT
Moon 8:02 PM MDT (7/13) 4:23 AM MDT (7/13)
Length of Visible Light 16h 13m
Length of Day
15h 05m
Waxing Gibbous, 97% of the Moon is Illuminated
Jul 13
Waxing Gibbous
Jul 15
Full
Jul 22
Last Quarter
Jul 30
New
Aug 6
First Quarter

Hourly Weather History & Observations

Time (MDT) Temp. Heat Index Dew Point Humidity Pressure Visibility Wind Dir Wind Speed Gust Speed Precip Events Conditions
12:53 AM 64.9 °F - 55.0 °F 70% 29.71 in 10.0 mi NE 4.6 mph - N/A   Clear
1:53 AM 62.1 °F - 55.9 °F 80% 29.73 in 10.0 mi NW 3.5 mph - N/A   Clear
2:53 AM 59.0 °F - 55.9 °F 90% 29.72 in 10.0 mi North 4.6 mph - N/A   Clear
3:53 AM 59.0 °F - 55.9 °F 90% 29.70 in 10.0 mi Calm Calm - N/A   Clear
4:53 AM 59.0 °F - 57.0 °F 93% 29.70 in 10.0 mi NW 6.9 mph - N/A   Clear
5:53 AM 57.9 °F - 55.0 °F 90% 29.71 in 10.0 mi Calm Calm - N/A   Clear
6:53 AM 57.9 °F - 55.9 °F 93% 29.73 in 10.0 mi NNE 3.5 mph - N/A   Clear
7:53 AM 64.0 °F - 57.0 °F 78% 29.74 in 10.0 mi NNW 6.9 mph - N/A   Clear
8:53 AM 72.0 °F - 57.9 °F 61% 29.75 in 10.0 mi West 9.2 mph - N/A   Clear
9:53 AM 73.9 °F - 55.0 °F 52% 29.78 in 10.0 mi West 9.2 mph - N/A   Clear
10:53 AM 75.0 °F - 54.0 °F 48% 29.78 in 10.0 mi WSW 8.1 mph - N/A   Clear
11:53 AM 78.1 °F - 55.0 °F 45% 29.78 in 10.0 mi West 10.4 mph - N/A   Partly Cloudy
12:53 PM 80.1 °F 80.1 °F 55.0 °F 42% 29.77 in 10.0 mi West 6.9 mph - N/A   Scattered Clouds
1:53 PM 84.9 °F - 46.0 °F 26% 29.73 in 10.0 mi NW 9.2 mph - N/A   Scattered Clouds
2:53 PM 90.0 °F - 36.0 °F 15% 29.69 in 10.0 mi SSW 21.9 mph 26.5 mph N/A   Scattered Clouds
3:01 PM 89.6 °F - 37.4 °F 16% 29.85 in 10.0 mi SW 25.3 mph 34.5 mph N/A   Clear
3:53 PM 90.0 °F - 36.0 °F 15% 29.68 in 10.0 mi South 21.9 mph 28.8 mph N/A   Scattered Clouds
4:53 PM 89.1 °F - 34.0 °F 14% 29.67 in 10.0 mi SSW 20.7 mph 29.9 mph N/A   Scattered Clouds
5:53 PM 89.1 °F - 36.0 °F 15% 29.65 in 10.0 mi South 19.6 mph 27.6 mph N/A   Scattered Clouds
6:53 PM 87.1 °F - 36.0 °F 16% 29.63 in 10.0 mi South 17.3 mph 23.0 mph N/A   Scattered Clouds
7:53 PM 82.9 °F - 36.0 °F 19% 29.62 in 10.0 mi South 15.0 mph 23.0 mph N/A   Scattered Clouds
8:53 PM 75.0 °F - 42.1 °F 31% 29.62 in 10.0 mi SSE 10.4 mph - N/A   Scattered Clouds
9:53 PM 73.0 °F - 39.9 °F 30% 29.62 in 10.0 mi SSE 10.4 mph - N/A   Clear
10:53 PM 66.0 °F - 39.0 °F 37% 29.64 in 10.0 mi South 8.1 mph - N/A   Clear
11:53 PM 71.1 °F - 39.9 °F 32% 29.64 in 10.0 mi SSW 9.2 mph - N/A   Clear